Location: Alpha Ridge Park
(39.3209°N, 76.9128°W)
Time: 17:09:39
(UTC-04:00)

Transit 2A - Pass Details

Date: 01 June 2019
Orbit: 593 x 966 km, 66.7° (Epoch: 18 June)

Event Time Altitude Azimuth Distance (km) Brightness Sun altitude
Rises 06:26:12 0° 213° (SSW) 3,546 8.9 6.6°
Reaches altitude 10° 06:28:41 10° 215° (SW) 2,640 8.3 7.1°
Maximum altitude 06:34:55 74° 300° (WNW) 1,003 6.7 8.2°
Drops below altitude 10° 06:41:20 10° 25° (NNE) 2,703 9.7 9.4°
Sets 06:43:54 0° 28° (NNE) 3,636 10.3 9.8°
